Location: B�retswil
(47.3376°N, 8.8534°E)
Time: 02:05:46
(UTC+00:00)

Cosmos 192 - Pass Details

Date: 03 March 2021
Orbit: 700 x 714 km, 74.0° (Epoch: 12 April)

Event Time Altitude Azimuth Distance (km) Brightness Sun altitude
Rises 19:14:50 0° 196° (SSW) 3,073 7.7 -21.3°
Reaches altitude 10° 19:17:08 10° 195° (SSW) 2,160 6.8 -21.7°
Maximum altitude 19:22:00 77° 110° (ESE) 725 4.1 -22.5°
Drops below altitude 10° 19:26:55 10° 25° (NNE) 2,183 6.8 -23.3°
Sets 19:29:15 0° 24° (NNE) 3,108 7.6 -23.7°
